Location: Peebles
(55.6412°N, 3.1714°W)
Time: 14:14:39
(UTC+01:00)

deb Agena D - Pass Details

Date: 19 September 2024
Orbit: 793 x 976 km, 99.8° (Epoch: 03 October)

Event Time Altitude Azimuth Distance (km) Brightness Sun altitude
Rises 04:00:44 0° 17° (NNE) 3,431 10.3 -22.9°
Reaches altitude 10° 04:03:03 10° 16° (NNE) 2,516 9.4 -22.7°
Maximum altitude 04:08:38 73° 293° (WNW) 937 6.3 -22.1°
Enters shadow 04:10:29 45° 221° (SW) 1,225 6.5 -21.9°
